Regional Weather Roundup
Issued by NWS Mt. Holly, NJ

Home | Current Version | Previous Version | Text Only | Print | Product List | Glossary On
Versions: 1 2 3 4 5 6 7 8 9 10 11 12 13 14 15 16 17 18 19 20 21 22 23 24 25 26 27 28
000
ASUS41 KPHI 300812
RWRPHI

REGIONAL WEATHER ROUNDUP
NATIONAL WEATHER SERVICE MOUNT HOLLY NJ
400 AM EDT TUE MAY 30 2017

NOTE:  "FAIR" INDICATES FEW OR NO CLOUDS BELOW 12,000 FEET WITH NO
SIGNIFICANT WEATHER AND/OR OBSTRUCTIONS TO VISIBILITY.

 * = STATION DOES NOT REPORT PRECIPITATION (E.G. RAIN, SNOW, ETC.)
        OR FOG.

NJZ015>026-300900-
SOUTHERN NEW JERSEY

CITY           SKY/WX    TMP DP  RH WIND       PRES   REMARKS
POMONA         NOT AVBL
WILDWOOD*      CLOUDY    56  54  93 E7        30.11S
MILLVILLE      CLOUDY    56  55  97 E7        30.10S
WRIGHTSTOWN    CLOUDY    55  53  94 E3        30.10S
MOUNT HOLLY    CLOUDY    55  52  89 VRB7      30.10F
TRENTON        CLOUDY    55  53  93 SE6       30.11S

$$
NJZ001>014-300900-
NORTHERN NEW JERSEY

CITY           SKY/WX    TMP DP  RH WIND       PRES   REMARKS
SUSSEX         CLOUDY    55  53  93 SW3       30.12S
ANDOVER*         N/A     54  51  90 CALM      30.12R
MORRISTOWN     CLOUDY    55  54  94 CALM      30.13R
NEWARK         DRIZZLE   56  53  90 SE8       30.13S
TETERBORO      CLOUDY    56  51  84 S7        30.12S
CALDWELL       CLOUDY    56  52  86 S5        30.14R FOG
SOMERVILLE     CLOUDY    55  52  89 S6        30.11R
ALLAIRE*       CLOUDY    54  52  93 SE6       30.13F
TOMS RIVER*    CLOUDY    55  53  93 SE3       30.13S

$$
PAZ043-044-047-054-055-060>062-066>071-300900-
EASTERN PENNSYLVANIA

CITY           SKY/WX    TMP DP  RH WIND       PRES   REMARKS
PHILADELPHIA   CLOUDY    57  53  86 SE6       30.11F
NORTH PHILA    CLOUDY    57  52  83 SE8       30.12F
BLUE BELL*     CLOUDY    54  52  94 CALM      30.12R
DOYLESTOWN     CLOUDY    54  53  97 CALM      30.11R
QUAKERTOWN*    CLOUDY    54  54 100 SE3       30.13R
PERKASIE*      CLOUDY    54  54 100 CALM      30.13R FOG
POTTSTOWN      CLOUDY    54  53  97 E3        30.12R FOG
LANCASTER      CLOUDY    58  58 100 SE10      30.08R FOG
COATESVILLE    FOG       54  54 100 SE3       30.11R VSB 1
READING        CLOUDY    56  56 100 SE7       30.09R
ALLENTOWN      CLOUDY    57  51  80 E6        30.11R
MOUNT POCONO   FOG       50  50 100 SE8       30.09S VSB 1/4
HAZLETON       FOG       54  52  94 SE6       30.10S VSB 1/2
LEHIGHTON      CLOUDY    55  54  94 CALM      30.10S
WILKES BARRE   CLOUDY    58  55  90 CALM      30.06R

$$
DEZALL-MDZ008-012-015-019-020-300900-
DELAWARE AND EASTERN MARYLAND

CITY           SKY/WX    TMP DP  RH WIND       PRES   REMARKS
WILMINGTON     CLOUDY    57  54  89 SE10      30.10F
DOVER          CLOUDY    58  58 100 SE8       30.08F
GEORGETOWN     CLOUDY    59  56  89 E7        30.08F
EASTON         CLOUDY    60  56  88 SE6       30.09F
ABERDEEN       CLOUDY    58  57  94 E6        30.09F
PATUXENT       CLOUDY    62  62 100 SE10      30.05S
OCEAN CITY     CLOUDY    60  58  92 E7        30.09F
WALLOPS ISLAND LGT RAIN  61  61 100 SE12      30.05F
CAMBRIDGE      CLOUDY    59  57  94 E7        30.06S
SALISBURY      CLOUDY    58  58 100 E7        30.06F FOG

$$
PAZ001-021-NYZ056-072-MDZ011-DCZ001-300900-
OTHER NEARBY LOCATIONS

CITY           SKY/WX    TMP DP  RH WIND       PRES   REMARKS
HARRISBURG     DRIZZLE   61  61 100 SE10      30.06R FOG
STATE COLLEGE  CLOUDY    60  55  85 CALM      30.01R
WILLIAMSPORT   CLOUDY    63  59  87 E10G20    30.01S
BINGHAMTON     CLOUDY    55  55 100 SE6       30.02S
NEW YORK CITY  CLOUDY    55  52  89 CALM      30.15S
BALTIMORE      CLOUDY    59  59 100 E7        30.06S FOG
WASHINGTON DC  CLOUDY    66  63  90 SE7       30.05S

$$




USA.gov is the U.S. government's official web portal to all federal, state and local government web resources and services.